Location: NJAA Observatory
(40.6819°N, 74.8979°W)
Time: 10:00:18
(UTC-04:00)

Courier 1B - All Passes

Search period start: 02 September 2014 00:00
Search period end: 12 September 2014 00:00
Orbit: 963 x 1209 km, 28.3° (Epoch: 01 September)

Date Brightness Start Highest point End Pass type
(mag) Time Alt. Az. Time Alt. Az. Time Alt. Az.
02 Sep - 06:28:25 10° SSW 06:32:49 16° SSE 06:37:09 10° ESE daylight
02 Sep - 08:19:49 10° SW 08:26:08 28° S 08:32:12 10° ESE daylight
02 Sep - 10:13:13 10° WSW 10:19:34 30° S 10:25:36 10° SE daylight
02 Sep - 12:07:50 10° WSW 12:12:47 20° SSW 12:17:32 10° SSE daylight
03 Sep - 05:36:09 10° S 05:39:14 13° SSE 05:42:17 10° SE visible
03 Sep - 07:26:20 10° SW 07:32:28 26° SSE 07:38:26 10° ESE daylight
03 Sep - 09:19:23 10° WSW 09:25:55 31° S 09:32:10 10° ESE daylight
03 Sep - 11:13:38 10° WSW 11:19:15 24° SSW 11:24:38 10° SE daylight
04 Sep - 06:33:02 10° SSW 06:38:49 23° SSE 06:44:30 10° ESE daylight
04 Sep - 08:25:37 10° SW 08:32:15 32° S 08:38:38 10° ESE daylight
04 Sep - 10:19:33 10° WSW 10:25:40 27° SSW 10:31:31 10° SE daylight
04 Sep - 12:15:21 10° SW 12:18:45 14° SSW 12:22:04 10° S daylight
05 Sep - 05:39:58 10° SSW 05:45:10 19° SSE 05:50:21 10° ESE visible
05 Sep - 07:31:57 10° SW 07:38:33 31° S 07:44:59 10° ESE daylight
05 Sep - 09:25:35 10° WSW 09:32:03 30° S 09:38:14 10° SE daylight
05 Sep - 11:20:34 10° WSW 11:25:15 18° SSW 11:29:47 10° SSE daylight
06 Sep - 04:47:15 10° S 04:51:34 16° SSE 04:55:52 10° ESE visible
06 Sep - 06:38:24 10° SW 06:44:52 29° S 06:51:13 10° ESE daylight
06 Sep - 08:31:42 10° WSW 08:38:22 32° S 08:44:49 10° SE daylight
06 Sep - 10:26:12 10° WSW 10:31:43 22° SSW 10:37:02 10° SSE daylight
07 Sep - 03:55:18 10° S 03:57:59 12° SSE 04:00:39 10° SE visible
07 Sep - 05:45:01 10° SW 05:51:10 26° SSE 05:57:18 10° ESE visible
07 Sep - 07:37:54 10° WSW 07:44:40 33° S 07:51:16 10° ESE daylight
07 Sep - 09:32:01 10° WSW 09:38:07 26° SSW 09:43:59 10° SE daylight
07 Sep - 11:28:47 10° SW 11:31:11 12° SSW 11:33:32 10° S daylight
08 Sep - 04:51:49 10° SSW 04:57:31 22° SSE 05:03:14 10° ESE visible
08 Sep - 06:44:12 10° SW 06:50:57 32° S 06:57:37 10° ESE daylight
08 Sep - 08:38:00 10° WSW 08:44:28 29° S 08:50:44 10° SE daylight
08 Sep - 10:33:27 10° WSW 10:37:40 16° SSW 10:41:47 10° S daylight
09 Sep - 03:58:54 10° SSW 04:03:53 19° SSE 04:08:55 10° ESE visible
09 Sep - 05:50:37 10° SW 05:57:14 31° S 06:03:50 10° ESE visible
09 Sep - 07:44:05 10° WSW 07:50:46 31° S 07:57:20 10° SE daylight
09 Sep - 09:38:52 10° WSW 09:44:06 20° SSW 09:49:13 10° SSE daylight
10 Sep - 03:06:27 10° S 03:10:18 15° SSE 03:14:13 10° ESE visible
10 Sep - 04:57:11 10° SW 05:03:32 28° SSE 05:09:56 10° ESE visible
10 Sep - 06:50:16 10° WSW 06:57:03 33° S 07:03:47 10° ESE daylight
10 Sep - 08:44:35 10° WSW 08:50:30 24° SSW 08:56:16 10° SSE daylight
11 Sep - 02:15:14 10° SSE 02:16:46 11° SSE 02:18:18 10° SE visible
11 Sep - 04:03:55 10° SW 04:09:51 25° SSE 04:15:55 10° ESE visible
11 Sep - 05:56:34 10° WSW 06:03:19 33° S 06:10:06 10° ESE visible
11 Sep - 07:50:31 10° WSW 07:56:50 27° SSW 08:03:04 10° SE daylight
11 Sep - 09:46:37 10° SW 09:50:01 13° SSW 09:53:23 10° S daylight
